Showing default

CHINASAT 1C, 41103

Orbit data source: Space-Track

CHINASAT 1C, 41103 is a payload satellite owned by PLA GAD (CN) in GEO that was launched on Wed, 09 Dec 2015 UTC via a CHANG ZHENG 3B launch vehicle from the Xichang Space Center, China (XSC). Payload-class satellites include a variety of spacecraft equipped with specific instruments for various scientific and technological missions. These include communications satellites like Starlink; space stations such as the ISS; scientific satellites like the Hubble; Earth observation satellites from companies like Planet Labs, Umbra, and HawkEye 360; GPS; miniature CubeSats for education and research; and military/defense satellites.

Not visible in the next 10 days
Identifier
41103, 2015-073A
Orbit
GEO
Country
Flag of CNCN / PRC
Related business
Manufacturer
CAST?
Mission
Non-operational Defense Communications
Bus & Motor
DFH-4?, DFH-4 LAE
Mass
~5,000 kg wet, ~2,500 kg dry
Launch date (UTC)
2015-12-09 (10 years ago)
Launch vehicle
CHANG ZHENG 3B
Launch site
Xichang Space Center, China (XSC)
Object type
Payload
Rocket body
Debris
Shape & HBR
Box + 2 Pan, 15.0 m
Radar Cross Section
34.063 m², Large (>1 m²)

Expand to show TLE details & history
Last TLE update: 18 hours ago

TLE from 18 hours ago
0 CHINASAT 1C
1 41103U 15073A   25259.65705271 -.00000084  00000-0  00000-0 0  9994
2 41103   6.4060  72.1373 0006899 163.8157  13.3501  0.99169129 35831
Epoch: 2025-09-16T15:46Z
TLE epoch observation values (Epoch: 2025-09-16T15:46:09.354Z)
Latitude
0.33511°
Longitude
16.95242°
Altitude
36,069.632 km
Speed
3.065 km/s
True Right ascension
16h 37m 20s
True Declination
0° 20' 05"
Sunlit
Object was in daylight at epoch
Visualization orbit readout
Latitude
Unknown
Longitude
Unknown
Altitude
Unknown
Speed
Unknown
Apparent Right ascension
Unknown
Apparent Declination
Unknown
Sunlit
N/A
Visualization observer readout
Local Sidereal Time
02:29:29
Azimuth
Unknown
Elevation
Unknown
Doppler factor
Unknown
Orbital elements
Apogee altitude
36,128.919 km
Perigee altitude
36,070.308 km
Semi-major axis
42,477.751 km
Eccentricity
0.00069
Inclination
6.406°
RAAN
72.1373°
Arg. of periapsis
163.8157°
True anomaly
13.36837°
Mean anomaly
13.3501°
Eccentric anomaly
13.35923°
Mean motion
0.24791 °/min
Orbital period
1,452.12 mins
BSTAR
0
Loading maneuver chart data...
Computing Atmospheric mass density...
Loading historical data...
Loading historical data...
Loading historical data...
Loading historical data...
Loading historical data...
Loading historical data...
Loading historical data...
Other satellites on launch #73 in the year 2015 (2015-12-09 UTC)

Documentation

Showing up to 5 results
|